Location: Eurasberg
(48.3353°N, 11.0839°E)
Time: 06:01:45
(UTC+00:00)

USA 307 - Pass Details

Date: 18 January 2026
Orbit: 495 x 502 km, 54.0° (Epoch: 10 March)

Event Time Altitude Azimuth Distance (km) Brightness Sun altitude
Exits shadow 04:32:58 62° 65° (ENE) 571 3.0 -23.9°
Drops below altitude 10° 04:36:31 10° 109° (ESE) 1,688 6.3 -23.3°
Sets 04:38:40 0° 112° (ESE) 2,514 7.5 -22.9°
